PAB260 LPPT-LEMD

Flight info

Callsign PAB260
Flight time N/A
Altitude 22000
Route DMT DCT CCS DCT TLD DCT VGE
Aircraft CONI/M-SDFY/C

Departure

Time N/A
Airport Lisbon Humberto Delgado Airport (LPPT)

Arrival

Time 2026-05-06 14:12
Airport Adolfo Suárez Madrid–Barajas Airport (LEMD)
Time Latitude Longitude Altitude Speed Heading
2026-05-06 14:05 40.30882 -3.44623 5098 ft 231 kts 140°
2026-05-06 14:05 40.29736 -3.43178 5018 ft 226 kts 126°
2026-05-06 14:05 40.29119 -3.41333 5002 ft 220 kts 101°
2026-05-06 14:05 40.29184 -3.39381 4989 ft 213 kts 74°
2026-05-06 14:06 40.29894 -3.37738 4996 ft 207 kts 46°
2026-05-06 14:06 40.31083 -3.36735 5003 ft 204 kts 19°
2026-05-06 14:06 40.32479 -3.36582 5001 ft 203 kts 351°
2026-05-06 14:06 40.33760 -3.37309 5000 ft 202 kts 322°
2026-05-06 14:07 40.34632 -3.38695 5001 ft 199 kts 300°
2026-05-06 14:07 40.35250 -3.40278 4999 ft 193 kts 298°
2026-05-06 14:07 40.35924 -3.41765 4885 ft 186 kts 304°
2026-05-06 14:07 40.36679 -3.43005 4698 ft 159 kts 314°
2026-05-06 14:08 40.37382 -3.43849 4503 ft 121 kts 322°
2026-05-06 14:08 40.38046 -3.44482 4288 ft 115 kts 326°
2026-05-06 14:08 40.38705 -3.45053 4108 ft 116 kts 327°
2026-05-06 14:08 40.39412 -3.45640 3962 ft 122 kts 328°
2026-05-06 14:09 40.40124 -3.46274 3788 ft 125 kts 326°
2026-05-06 14:09 40.40819 -3.46938 3617 ft 120 kts 324°
2026-05-06 14:09 40.41466 -3.47593 3443 ft 115 kts 323°
2026-05-06 14:09 40.42092 -3.48222 3280 ft 113 kts 322°
2026-05-06 14:10 40.42705 -3.48842 3141 ft 110 kts 322°
2026-05-06 14:10 40.43296 -3.49478 3009 ft 110 kts 321°
2026-05-06 14:10 40.43894 -3.50120 2880 ft 112 kts 322°
2026-05-06 14:10 40.44515 -3.50765 2740 ft 115 kts 323°
2026-05-06 14:11 40.45158 -3.51412 2589 ft 118 kts 324°
2026-05-06 14:11 40.45816 -3.52070 2431 ft 120 kts 324°
2026-05-06 14:11 40.46484 -3.52744 2267 ft 122 kts 323°
2026-05-06 14:11 40.47155 -3.53426 2103 ft 123 kts 323°
2026-05-06 14:12 40.47808 -3.54094 2024 ft 103 kts 323°
2026-05-06 14:12 40.48306 -3.54601 2011 ft 82 kts 324°
2026-05-06 14:12 40.48690 -3.54971 2010 ft 46 kts 310°
2026-05-06 14:12 40.48808 -3.55237 2010 ft 19 kts 290°
2026-05-06 14:13 40.48844 -3.55351 2010 ft 1 kts 294°
2026-05-06 14:13 40.48845 -3.55353 2010 ft 0 kts 294°
2026-05-06 14:15 40.48845 -3.55354 2010 ft 0 kts 294°
2026-05-06 14:16 40.48856 -3.55384 2010 ft 12 kts 294°
2026-05-06 14:16 40.48915 -3.55493 2010 ft 14 kts 319°
2026-05-06 14:16 40.49007 -3.55582 2010 ft 19 kts 323°
2026-05-06 14:17 40.49125 -3.55703 2010 ft 20 kts 321°
2026-05-06 14:17 40.49237 -3.55815 2010 ft 18 kts 321°
2026-05-06 14:17 40.49299 -3.55942 2010 ft 14 kts 281°
2026-05-06 14:17 40.49300 -3.56023 2010 ft 10 kts 268°
2026-05-06 14:18 40.49279 -3.56122 2010 ft 12 kts 222°
2026-05-06 14:18 40.49186 -3.56140 2010 ft 14 kts 179°
2026-05-06 14:18 40.49159 -3.56140 2010 ft 0 kts 180°
2026-05-06 14:18 40.49158 -3.56140 2010 ft 2 kts 180°
2026-05-06 14:19 40.49050 -3.56139 2010 ft 20 kts 179°
2026-05-06 14:19 40.48935 -3.56136 2010 ft 16 kts 180°
2026-05-06 14:19 40.48816 -3.56138 2010 ft 10 kts 185°